This demonstration page uses our WeatherBlox Daily Observations layout. Learn more.

Left ArrowRight Arrow

39.01783, -85.05884

Hourly Observations for March 21, 2020

Temp ( °F °C ) Dew Point ( °F °C ) Humidity (%) Winds ( mph kmh ) Pressure ( in mb ) Visibility ( mi km ) Precip ( " mm )
12:52 am 00:52 Cloudy 38 3.3 29 -1.7 70 70 NNW 17 28 30.36 1028 10 16 0.00 0.00
1:03 am 01:03 Cloudy 38 3.3 29 -1.7 70 70 NNW 16 26 30.40 1030 10 16 0.00 0.00
1:33 am 01:33 Cloudy 37 2.8 28 -2.2 70 70 N 15 24 30.39 1029 10 16 0.00 0.00
1:52 am 01:52 Cloudy 36 2.2 28 -2.2 73 73 N 15 24 30.35 1028 10 16 0.00 0.00
2:52 am 02:52 Cloudy 36 2.2 28 -2.2 73 73 N 16 26 30.35 1028 10 16 0.00 0.00
3:52 am 03:52 Cloudy 35 1.7 27 -2.8 72 72 N 14 22 30.35 1028 10 16 0.00 0.00
4:52 am 04:52 Cloudy 35 1.7 27 -2.8 72 72 N 13 20 30.35 1028 10 16 0.00 0.00
5:52 am 05:52 Cloudy 34 1.1 27 -2.8 76 76 N 14 22 30.38 1029 10 16 0.00 0.00
6:52 am 06:52 Cloudy 34 1.1 25 -3.9 70 70 NNE 14 22 30.40 1030 10 16 0.00 0.00
7:52 am 07:52 Cloudy 34 1.1 25 -3.9 70 70 N 14 22 30.42 1030 10 16 0.00 0.00
8:52 am 08:52 Cloudy 34 1.1 25 -3.9 70 70 N 13 20 30.44 1031 10 16 0.00 0.00
9:52 am 09:52 Cloudy 34 1.1 24 -4.4 67 67 NNE 13 20 30.45 1031 10 16 0.00 0.00
10:52 am 10:52 Cloudy 35 1.7 25 -3.9 67 67 NNE 10 17 30.46 1032 10 16 0.00 0.00
11:52 am 11:52 Cloudy 35 1.7 25 -3.9 67 67 N 10 17 30.48 1032 10 16 0.00 0.00
12:52 pm 12:52 Cloudy 36 2.2 26 -3.3 67 67 N 7 11 30.49 1033 10 16 0.00 0.00
1:52 pm 13:52 Cloudy 37 2.8 26 -3.3 65 65 N 7 11 30.48 1032 10 16 0.00 0.00
2:52 pm 14:52 Cloudy 36 2.2 26 -3.3 67 67 N 7 11 30.47 1032 10 16 0.00 0.00
3:52 pm 15:52 Cloudy 38 3.3 26 -3.3 62 62 NNE 5 7 30.45 1031 10 16 0.00 0.00
4:52 pm 16:52 Cloudy 37 2.8 25 -3.9 62 62 NNE 10 17 30.47 1032 10 16 0.00 0.00
5:52 pm 17:52 Cloudy 37 2.8 25 -3.9 62 62 N 10 17 30.48 1032 10 16 0.00 0.00
6:52 pm 18:52 Cloudy 36 2.2 24 -4.4 62 62 N 8 13 30.49 1033 10 16 0.00 0.00
7:52 pm 19:52 Cloudy 36 2.2 24 -4.4 62 62 N 9 15 30.50 1033 10 16 0.00 0.00
8:52 pm 20:52 Cloudy 36 2.2 24 -4.4 62 62 N 7 11 30.51 1033 10 16 0.00 0.00
9:52 pm 21:52 Cloudy 35 1.7 24 -4.4 64 64 NNE 12 19 30.52 1034 10 16 0.00 0.00
10:52 pm 22:52 Cloudy 35 1.7 24 -4.4 64 64 NNE 9 15 30.52 1033 10 16 0.00 0.00
11:52 pm 23:52 Cloudy 34 1.1 24 -4.4 67 67 NNE 10 17 30.50 1033 10 16 0.00 0.00

Powered by AerisWeather